Location: Atherton
(17.2661°S, 145.4859°E)
Time: 19:13:49
(UTC+10:00)

NOAA 15 - Visible Passes

Search period start: 09 June 2026 00:00
Search period end: 19 June 2026 00:00
Orbit: 794 x 809 km, 98.5° (Epoch: 9 June)

Date Brightness Start Highest point End Pass type
(mag) Time Alt. Az. Time Alt. Az. Time Alt. Az.
9 Jun 4.9 19:32:08 18° S 19:36:03 63° WSW 19:41:12 10° NNW visible
10 Jun 4.5 19:05:32 15° SSE 19:09:52 65° ENE 19:15:01 10° N visible
11 Jun 6.7 06:11:54 10° NE 06:16:20 28° ESE 06:20:47 10° SSE visible
11 Jun 5.3 18:38:58 10° SE 18:43:36 32° E 18:48:11 10° NNE visible
11 Jun 6.9 20:19:54 11° SSW 20:22:59 18° WSW 20:26:28 10° WNW visible
12 Jun 7.3 05:47:37 10° ENE 05:50:18 14° ESE 05:52:59 10° SE visible
12 Jun 6.1 18:14:12 10° ESE 18:17:17 16° E 18:20:21 10° NE visible
12 Jun 5.9 19:53:18 16° SSW 19:56:54 36° WSW 20:01:38 10° NW visible
13 Jun 4.7 19:26:42 17° S 19:30:45 73° WSW 19:35:57 10° NNW visible
14 Jun 4.6 19:00:06 14° SSE 19:04:33 56° E 19:09:39 10° N visible
15 Jun 6.9 06:06:51 10° NE 06:11:04 24° ESE 06:15:17 10° SSE visible
15 Jun 5.5 18:33:50 10° SE 18:38:16 28° E 18:42:40 10° NNE visible
15 Jun 6.8 20:14:26 12° SSW 20:17:42 21° WSW 20:21:31 10° WNW visible
16 Jun 7.4 05:43:01 10° E 05:45:02 12° ESE 05:47:04 10° SE visible
16 Jun 5.7 19:47:50 16° SSW 19:51:37 41° WSW 19:56:28 10° NW visible
17 Jun 4.6 19:21:12 16° S 19:25:27 83° WSW 19:30:40 10° NNW visible
18 Jun 4.8 18:54:35 12° SSE 18:59:13 49° E 19:04:15 10° N visible
18 Jun 7.3 20:36:40 10° SW 20:38:27 12° WSW 20:40:13 10° W visible
